QPF
0.02 0.03 0.03 0.02 0.03 0.04 0.06 0.06 0.06 0.05 0.03 0.02 0.03 0.03 0.03 0.02 0.02 0.02 0.03 0.04 0.04 0.05 0.04 0.05 0.07 0.07 0.07 0.05 0.04 0.05 0.05 0.05 0.07 0.08 0.07 0.07 0.07 0.05 0.05 0.07 0.07 0.03 0.03
0.01 0.02 0.03 0.03 0.03 0.03 0.04 0.03 0.03 0.03 0.03 0.02 0.03 0.04 0.03 0.03 0.03 0.04 0.04 0.04 0.05 0.06 0.06 0.04 0.06 0.06 0.05 0.06 0.06 0.06 0.07 0.06 0.07 0.10 0.10 0.08 0.08 0.07 0.09 0.11 0.09 0.04 0.04
0.01 0.00 0.01 0.02 0.03 0.03 0.03 0.02 0.02 0.02 0.03 0.03 0.03 0.04 0.04 0.04 0.03 0.04 0.04 0.05 0.07 0.07 0.07 0.06 0.06 0.06 0.05 0.06 0.07 0.06 0.08 0.07 0.09 0.13 0.13 0.08 0.09 0.09 0.09 0.09 0.06 0.06 0.07
0.00 0.00 0.01 0.02 0.02 0.02 0.02 0.01 0.02 0.02 0.02 0.02 0.03 0.04 0.04 0.05 0.05 0.04 0.06 0.06 0.06 0.07 0.06 0.05 0.05 0.06 0.05 0.04 0.06 0.08 0.08 0.08 0.11 0.17 0.13 0.08 0.07 0.07 0.08 0.07 0.06 0.07 0.07
0.00 0.01 0.01 0.01 0.01 0.01 0.01 0.02 0.03 0.03 0.02 0.02 0.02 0.04 0.05 0.04 0.05 0.05 0.06 0.07 0.07 0.05 0.04 0.04 0.04 0.06 0.06 0.05 0.05 0.06 0.07 0.10 0.14 0.21 0.12 0.13 0.11 0.08 0.08 0.07 0.06 0.06 0.07
0.01 0.01 0.01 0.01 0.01 0.01 0.02 0.02 0.03 0.03 0.02 0.02 0.02 0.03 0.04 0.04 0.03 0.04 0.05 0.08 0.07 0.07 0.07 0.06 0.04 0.06 0.06 0.07 0.05 0.05 0.06 0.11 0.18 0.14 0.09 0.10 0.08 0.07 0.06 0.06 0.06 0.06 0.06
0.01 0.01 0.00 0.00 0.01 0.01 0.02 0.02 0.02 0.02 0.02 0.02 0.02 0.03 0.04 0.03 0.03 0.03 0.05 0.07 0.08 0.08 0.06 0.06 0.05 0.04 0.05 0.05 0.03 0.03 0.06 0.13 0.16 0.08 0.08 0.10 0.06 0.05 0.05 0.05 0.05 0.04 0.05
0.01 0.01 0.00 0.00 0.01 0.01 0.02 0.02 0.02 0.02 0.02 0.02 0.02 0.03 0.03 0.02 0.02 0.03 0.05 0.06 0.07 0.07 0.05 0.05 0.04 0.03 0.02 0.03 0.02 0.02 0.04 0.10 0.09 0.05 0.05 0.06 0.03 0.05 0.05 0.05 0.04 0.03 0.04
0.01 0.01 0.01 0.01 0.01 0.01 0.01 0.01 0.01 0.01 0.02 0.02 0.02 0.02 0.02 0.02 0.02 0.03 0.06 0.04 0.04 0.06 0.05 0.05 0.03 0.02 0.02 0.02 0.02 0.02 0.02 0.05 0.06 0.04 0.04 0.02 0.02 0.04 0.04 0.04 0.04 0.03 0.04
0.02 0.03 0.03 0.03 0.02 0.01 0.01 0.02 0.01 0.01 0.01 0.01 0.02 0.02 0.02 0.02 0.02 0.03 0.04 0.03 0.04 0.04 0.05 0.04 0.03 0.01 0.01 0.02 0.02 0.01 0.01 0.03 0.04 0.03 0.04 0.01 0.01 0.02 0.02 0.02 0.02 0.03 0.04
0.05 0.05 0.05 0.05 0.04 0.04 0.03 0.01 0.01 0.01 0.01 0.02 0.03 0.03 0.06 0.12 0.07 0.07 0.05 0.03 0.02 0.03 0.04 0.03 0.03 0.02 0.01 0.01 0.01 0.01 0.01 0.02 0.03 0.03 0.04 0.01 0.01 0.02 0.01 0.01 0.02 0.03 0.04
0.04 0.04 0.05 0.04 0.04 0.04 0.05 0.04 0.04 0.05 0.04 0.06 0.08 0.08 0.13 0.15 0.14 0.08 0.04 0.02 0.02 0.03 0.03 0.03 0.03 0.03 0.03 0.03 0.01 0.01 0.03 0.04 0.04 0.03 0.02 0.01 0.01 0.02 0.02 0.02 0.02 0.02 0.04
0.03 0.03 0.05 0.04 0.04 0.04 0.07 0.07 0.06 0.08 0.08 0.08 0.09 0.09 0.11 0.08 0.09 0.07 0.06 0.04 0.03 0.04 0.06 0.03 0.05 0.09 0.06 0.05 0.04 0.03 0.03 0.05 0.05 0.04 0.05 0.03 0.02 0.03 0.03 0.02 0.02 0.03 0.04
0.02 0.03 0.05 0.04 0.05 0.05 0.07 0.09 0.07 0.05 0.06 0.07 0.07 0.07 0.09 0.10 0.11 0.12 0.12 0.10 0.08 0.10 0.13 0.10 0.11 0.11 0.07 0.03 0.03 0.03 0.03 0.05 0.04 0.03 0.04 0.03 0.02 0.02 0.03 0.03 0.03 0.02 0.03
0.04 0.04 0.05 0.06 0.07 0.06 0.08 0.08 0.05 0.04 0.04 0.06 0.05 0.07 0.08 0.06 0.09 0.11 0.11 0.12 0.07 0.05 0.07 0.10 0.10 0.11 0.08 0.04 0.02 0.02 0.02 0.02 0.02 0.02 0.03 0.03 0.03 0.02 0.03 0.03 0.03 0.02 0.02
0.05 0.06 0.06 0.05 0.05 0.05 0.06 0.07 0.05 0.04 0.04 0.05 0.05 0.03 0.03 0.04 0.06 0.07 0.08 0.09 0.07 0.06 0.06 0.06 0.07 0.09 0.10 0.06 0.05 0.03 0.02 0.02 0.04 0.04 0.04 0.04 0.02 0.01 0.02 0.02 0.03 0.02 0.01
0.06 0.07 0.06 0.04 0.04 0.07 0.07 0.06 0.04 0.03 0.02 0.03 0.04 0.03 0.02 0.03 0.04 0.05 0.08 0.06 0.05 0.04 0.04 0.05 0.06 0.10 0.09 0.07 0.07 0.06 0.05 0.04 0.05 0.05 0.06 0.05 0.03 0.02 0.01 0.01 0.02 0.02 0.02
0.04 0.06 0.06 0.05 0.04 0.05 0.06 0.06 0.04 0.03 0.03 0.04 0.04 0.04 0.03 0.03 0.03 0.05 0.06 0.05 0.03 0.03 0.02 0.05 0.05 0.07 0.09 0.10 0.08 0.06 0.07 0.08 0.05 0.04 0.05 0.06 0.05 0.04 0.03 0.02 0.02 0.03 0.03
0.02 0.04 0.06 0.05 0.03 0.04 0.05 0.05 0.05 0.06 0.04 0.04 0.06 0.06 0.05 0.03 0.02 0.03 0.05 0.07 0.03 0.03 0.02 0.03 0.05 0.06 0.09 0.10 0.07 0.08 0.06 0.08 0.06 0.04 0.04 0.04 0.05 0.04 0.03 0.03 0.02 0.02 0.02
0.02 0.04 0.06 0.06 0.04 0.04 0.05 0.06 0.07 0.07 0.05 0.04 0.06 0.08 0.06 0.04 0.02 0.04 0.04 0.04 0.03 0.03 0.04 0.04 0.06 0.05 0.07 0.09 0.08 0.14 0.08 0.08 0.07 0.07 0.06 0.07 0.06 0.03 0.04 0.05 0.05 0.03 0.02
0.02 0.03 0.04 0.05 0.05 0.05 0.05 0.07 0.08 0.07 0.05 0.04 0.05 0.06 0.06 0.05 0.04 0.05 0.06 0.08 0.05 0.05 0.04 0.04 0.06 0.06 0.06 0.06 0.12 0.18 0.15 0.11 0.08 0.05 0.06 0.11 0.12 0.05 0.06 0.07 0.08 0.08 0.05
0.02 0.03 0.05 0.06 0.07 0.07 0.06 0.07 0.08 0.08 0.06 0.05 0.05 0.08 0.07 0.06 0.04 0.04 0.07 0.06 0.07 0.09 0.07 0.08 0.09 0.10 0.09 0.07 0.12 0.17 0.16 0.19 0.19 0.08 0.07 0.08 0.11 0.09 0.06 0.06 0.07 0.09 0.08
0.01 0.02 0.03 0.04 0.07 0.07 0.08 0.09 0.11 0.11 0.07 0.07 0.08 0.09 0.06 0.05 0.04 0.05 0.05 0.05 0.09 0.06 0.09 0.10 0.09 0.10 0.11 0.11 0.08 0.12 0.16 0.20 0.17 0.14 0.10 0.07 0.06 0.06 0.05 0.05 0.06 0.10 0.11
0.01 0.02 0.03 0.04 0.07 0.09 0.09 0.09 0.11 0.11 0.10 0.10 0.10 0.11 0.10 0.07 0.06 0.07 0.07 0.08 0.10 0.06 0.11 0.07 0.07 0.09 0.11 0.11 0.11 0.07 0.08 0.14 0.18 0.16 0.12 0.07 0.06 0.05 0.05 0.05 0.06 0.08 0.09
0.01 0.01 0.03 0.05 0.08 0.09 0.07 0.08 0.11 0.12 0.12 0.13 0.12 0.13 0.12 0.10 0.10 0.08 0.09 0.10 0.09 0.07 0.08 0.08 0.12 0.10 0.09 0.09 0.11 0.10 0.09 0.10 0.09 0.14 0.15 0.12 0.10 0.06 0.05 0.06 0.08 0.09 0.09
0.01 0.01 0.03 0.05 0.07 0.07 0.06 0.08 0.09 0.12 0.14 0.15 0.14 0.14 0.11 0.08 0.09 0.08 0.11 0.13 0.09 0.08 0.09 0.08 0.09 0.08 0.10 0.12 0.11 0.11 0.11 0.11 0.10 0.12 0.14 0.13 0.10 0.05 0.05 0.06 0.07 0.08 0.09
MSLP
1011.06 1011.22 1011.53 1011.96 1012.47 1012.98 1013.41 1013.74 1013.94 1014.03 1014.05 1014.07 1014.13 1014.27 1014.47 1014.72 1014.99 1015.24 1015.44 1015.57 1015.65 1015.71 1015.78 1015.88 1016.02 1016.21 1016.42 1016.64 1016.85 1017.04 1017.20 1017.35 1017.49 1017.64 1017.81 1017.99 1018.19 1018.38 1018.56 1018.73 1018.88 1019.02 1019.15
1011.08 1011.39 1011.84 1012.38 1012.95 1013.47 1013.87 1014.12 1014.23 1014.23 1014.19 1014.18 1014.24 1014.40 1014.66 1014.96 1015.28 1015.54 1015.74 1015.84 1015.89 1015.91 1015.95 1016.02 1016.15 1016.34 1016.57 1016.81 1017.04 1017.24 1017.42 1017.58 1017.74 1017.91 1018.10 1018.31 1018.53 1018.74 1018.94 1019.11 1019.27 1019.41 1019.55
1011.17 1011.61 1012.17 1012.79 1013.40 1013.92 1014.30 1014.50 1014.54 1014.48 1014.40 1014.36 1014.42 1014.60 1014.87 1015.20 1015.51 1015.77 1015.94 1016.01 1016.03 1016.02 1016.03 1016.10 1016.24 1016.45 1016.69 1016.94 1017.18 1017.39 1017.57 1017.75 1017.93 1018.12 1018.35 1018.59 1018.84 1019.08 1019.30 1019.49 1019.65 1019.80 1019.94
1011.28 1011.81 1012.44 1013.13 1013.78 1014.31 1014.67 1014.84 1014.86 1014.77 1014.67 1014.62 1014.69 1014.86 1015.13 1015.44 1015.73 1015.95 1016.08 1016.13 1016.12 1016.10 1016.12 1016.20 1016.36 1016.57 1016.83 1017.08 1017.31 1017.51 1017.70 1017.88 1018.07 1018.30 1018.56 1018.84 1019.13 1019.40 1019.64 1019.85 1020.02 1020.17 1020.32
1011.35 1011.94 1012.63 1013.35 1014.03 1014.58 1014.95 1015.13 1015.15 1015.07 1014.98 1014.95 1015.02 1015.19 1015.43 1015.71 1015.96 1016.14 1016.23 1016.24 1016.23 1016.22 1016.26 1016.38 1016.56 1016.79 1017.04 1017.28 1017.49 1017.67 1017.83 1018.01 1018.21 1018.47 1018.77 1019.09 1019.42 1019.72 1019.98 1020.20 1020.37 1020.52 1020.67
1011.37 1011.98 1012.70 1013.45 1014.15 1014.73 1015.12 1015.33 1015.39 1015.35 1015.30 1015.29 1015.37 1015.54 1015.76 1016.00 1016.20 1016.34 1016.40 1016.41 1016.41 1016.43 1016.52 1016.67 1016.89 1017.13 1017.37 1017.58 1017.74 1017.88 1018.01 1018.16 1018.37 1018.65 1018.99 1019.36 1019.73 1020.06 1020.33 1020.55 1020.71 1020.86 1021.01
1011.31 1011.94 1012.66 1013.43 1014.15 1014.75 1015.18 1015.43 1015.54 1015.56 1015.56 1015.59 1015.70 1015.87 1016.08 1016.29 1016.46 1016.57 1016.63 1016.65 1016.68 1016.75 1016.89 1017.09 1017.33 1017.58 1017.79 1017.95 1018.05 1018.13 1018.21 1018.34 1018.55 1018.86 1019.23 1019.64 1020.05 1020.41 1020.69 1020.90 1021.05 1021.18 1021.31
1011.23 1011.83 1012.55 1013.31 1014.04 1014.66 1015.12 1015.42 1015.59 1015.67 1015.73 1015.81 1015.95 1016.14 1016.35 1016.55 1016.71 1016.82 1016.89 1016.95 1017.03 1017.16 1017.35 1017.59 1017.85 1018.07 1018.25 1018.34 1018.38 1018.39 1018.42 1018.53 1018.74 1019.07 1019.48 1019.94 1020.39 1020.77 1021.06 1021.26 1021.39 1021.48 1021.60
1011.15 1011.73 1012.42 1013.17 1013.89 1014.51 1014.99 1015.32 1015.53 1015.67 1015.78 1015.92 1016.11 1016.33 1016.56 1016.78 1016.95 1017.08 1017.19 1017.28 1017.41 1017.59 1017.83 1018.09 1018.34 1018.55 1018.67 1018.70 1018.66 1018.61 1018.60 1018.69 1018.91 1019.26 1019.72 1020.23 1020.71 1021.13 1021.43 1021.61 1021.72 1021.79 1021.87
1011.12 1011.67 1012.33 1013.04 1013.73 1014.34 1014.81 1015.15 1015.39 1015.57 1015.74 1015.93 1016.17 1016.44 1016.71 1016.96 1017.17 1017.33 1017.47 1017.61 1017.78 1018.00 1018.25 1018.51 1018.75 1018.91 1018.98 1018.95 1018.86 1018.76 1018.72 1018.80 1019.04 1019.43 1019.93 1020.49 1021.02 1021.46 1021.78 1021.96 1022.04 1022.08 1022.13
1011.18 1011.69 1012.31 1012.99 1013.63 1014.19 1014.64 1014.97 1015.22 1015.42 1015.63 1015.87 1016.16 1016.48 1016.80 1017.10 1017.35 1017.56 1017.74 1017.91 1018.10 1018.32 1018.57 1018.81 1019.01 1019.13 1019.15 1019.07 1018.94 1018.82 1018.77 1018.86 1019.12 1019.55 1020.10 1020.70 1021.27 1021.75 1022.08 1022.28 1022.35 1022.37 1022.39
1011.32 1011.80 1012.38 1013.00 1013.60 1014.11 1014.52 1014.82 1015.06 1015.27 1015.50 1015.79 1016.12 1016.49 1016.86 1017.21 1017.51 1017.76 1017.96 1018.15 1018.33 1018.54 1018.75 1018.96 1019.11 1019.19 1019.17 1019.07 1018.93 1018.81 1018.78 1018.89 1019.17 1019.63 1020.21 1020.85 1021.46 1021.96 1022.33 1022.54 1022.63 1022.64 1022.64
1011.51 1011.97 1012.52 1013.10 1013.64 1014.10 1014.46 1014.73 1014.95 1015.15 1015.40 1015.71 1016.08 1016.49 1016.91 1017.31 1017.64 1017.92 1018.13 1018.31 1018.48 1018.65 1018.82 1018.97 1019.08 1019.13 1019.10 1019.00 1018.87 1018.78 1018.77 1018.91 1019.21 1019.69 1020.28 1020.93 1021.56 1022.09 1022.48 1022.73 1022.84 1022.87 1022.87
1011.71 1012.17 1012.70 1013.24 1013.74 1014.16 1014.47 1014.71 1014.90 1015.10 1015.35 1015.67 1016.06 1016.50 1016.95 1017.37 1017.74 1018.03 1018.24 1018.41 1018.55 1018.67 1018.79 1018.90 1018.98 1019.01 1018.98 1018.91 1018.82 1018.77 1018.80 1018.96 1019.27 1019.74 1020.32 1020.95 1021.57 1022.11 1022.53 1022.81 1022.97 1023.03 1023.06
1011.88 1012.35 1012.88 1013.40 1013.87 1014.26 1014.55 1014.76 1014.93 1015.12 1015.35 1015.67 1016.06 1016.51 1016.97 1017.40 1017.78 1018.07 1018.28 1018.43 1018.54 1018.63 1018.71 1018.78 1018.84 1018.88 1018.89 1018.86 1018.83 1018.83 1018.90 1019.07 1019.37 1019.80 1020.32 1020.90 1021.48 1022.00 1022.44 1022.76 1022.97 1023.10 1023.18
1012.00 1012.49 1013.02 1013.54 1014.00 1014.37 1014.65 1014.86 1015.02 1015.19 1015.41 1015.70 1016.07 1016.49 1016.94 1017.37 1017.74 1018.03 1018.24 1018.38 1018.47 1018.54 1018.60 1018.67 1018.74 1018.81 1018.87 1018.91 1018.94 1019.00 1019.09 1019.26 1019.52 1019.87 1020.30 1020.79 1021.30 1021.78 1022.21 1022.57 1022.84 1023.05 1023.20
1012.06 1012.57 1013.11 1013.63 1014.10 1014.48 1014.77 1014.98 1015.14 1015.30 1015.49 1015.74 1016.07 1016.45 1016.86 1017.26 1017.62 1017.91 1018.12 1018.26 1018.36 1018.44 1018.51 1018.60 1018.70 1018.81 1018.93 1019.04 1019.14 1019.24 1019.36 1019.50 1019.70 1019.95 1020.27 1020.63 1021.04 1021.45 1021.86 1022.23 1022.57 1022.86 1023.09
1012.06 1012.59 1013.13 1013.67 1014.15 1014.56 1014.88 1015.11 1015.28 1015.42 1015.58 1015.78 1016.04 1016.36 1016.71 1017.07 1017.40 1017.69 1017.92 1018.09 1018.22 1018.33 1018.43 1018.56 1018.71 1018.88 1019.06 1019.24 1019.40 1019.54 1019.66 1019.77 1019.89 1020.03 1020.21 1020.44 1020.72 1021.05 1021.41 1021.79 1022.17 1022.53 1022.86
1012.03 1012.56 1013.11 1013.66 1014.17 1014.60 1014.95 1015.22 1015.40 1015.54 1015.67 1015.81 1016.00 1016.24 1016.52 1016.83 1017.13 1017.42 1017.67 1017.88 1018.06 1018.22 1018.38 1018.56 1018.76 1018.99 1019.22 1019.45 1019.65 1019.82 1019.94 1020.01 1020.05 1020.09 1020.14 1020.23 1020.39 1020.62 1020.91 1021.27 1021.68 1022.09 1022.49
1011.97 1012.50 1013.05 1013.61 1014.13 1014.61 1015.00 1015.30 1015.52 1015.66 1015.76 1015.85 1015.96 1016.12 1016.32 1016.57 1016.85 1017.13 1017.41 1017.67 1017.90 1018.12 1018.35 1018.57 1018.82 1019.09 1019.36 1019.63 1019.86 1020.04 1020.15 1020.19 1020.18 1020.12 1020.07 1020.04 1020.08 1020.20 1020.43 1020.75 1021.14 1021.59 1022.03
1011.90 1012.42 1012.96 1013.51 1014.06 1014.56 1015.00 1015.35 1015.60 1015.76 1015.85 1015.90 1015.95 1016.03 1016.16 1016.35 1016.59 1016.87 1017.17 1017.47 1017.76 1018.04 1018.31 1018.59 1018.86 1019.15 1019.44 1019.72 1019.96 1020.15 1020.26 1020.29 1020.24 1020.13 1020.00 1019.88 1019.83 1019.86 1020.01 1020.27 1020.63 1021.06 1021.51
1011.80 1012.31 1012.84 1013.38 1013.93 1014.47 1014.96 1015.36 1015.66 1015.85 1015.95 1015.97 1015.98 1015.99 1016.06 1016.19 1016.40 1016.67 1016.98 1017.32 1017.65 1017.97 1018.27 1018.57 1018.86 1019.14 1019.42 1019.70 1019.94 1020.13 1020.24 1020.28 1020.23 1020.11 1019.95 1019.79 1019.67 1019.63 1019.71 1019.89 1020.19 1020.57 1021.00
1011.68 1012.17 1012.67 1013.20 1013.76 1014.32 1014.85 1015.31 1015.67 1015.91 1016.03 1016.06 1016.04 1016.02 1016.04 1016.13 1016.30 1016.54 1016.86 1017.20 1017.55 1017.90 1018.21 1018.50 1018.78 1019.04 1019.30 1019.55 1019.78 1019.97 1020.11 1020.17 1020.15 1020.06 1019.91 1019.75 1019.62 1019.54 1019.55 1019.67 1019.88 1020.19 1020.55
1011.51 1012.00 1012.48 1012.98 1013.53 1014.10 1014.66 1015.18 1015.60 1015.90 1016.07 1016.14 1016.12 1016.09 1016.07 1016.12 1016.25 1016.47 1016.77 1017.11 1017.46 1017.79 1018.10 1018.38 1018.62 1018.85 1019.07 1019.29 1019.50 1019.70 1019.85 1019.96 1020.00 1019.98 1019.89 1019.78 1019.66 1019.57 1019.55 1019.60 1019.74 1019.95 1020.23
1011.33 1011.80 1012.25 1012.72 1013.25 1013.81 1014.40 1014.95 1015.44 1015.81 1016.04 1016.15 1016.17 1016.14 1016.11 1016.13 1016.23 1016.42 1016.68 1017.00 1017.33 1017.65 1017.93 1018.18 1018.39 1018.57 1018.75 1018.94 1019.13 1019.33 1019.51 1019.67 1019.79 1019.85 1019.86 1019.82 1019.76 1019.70 1019.67 1019.68 1019.76 1019.89 1020.07
1011.14 1011.60 1012.01 1012.44 1012.93 1013.47 1014.06 1014.64 1015.17 1015.60 1015.91 1016.08 1016.14 1016.13 1016.10 1016.11 1016.18 1016.33 1016.55 1016.84 1017.14 1017.43 1017.70 1017.91 1018.09 1018.23 1018.37 1018.52 1018.70 1018.89 1019.11 1019.32 1019.51 1019.66 1019.77 1019.83 1019.86 1019.86 1019.86 1019.87 1019.92 1020.00 1020.11
Thickness
5794 5790 5787 5785 5784 5783 5781 5780 5778 5777 5775 5774 5773 5772 5772 5771 5770 5769 5768 5767 5766 5765 5764 5763 5761 5760 5760 5759 5758 5757 5756 5755 5754 5752 5751 5749 5748 5747 5747 5745 5745 5743 5741
5798 5791 5786 5784 5783 5781 5780 5779 5777 5775 5774 5773 5772 5771 5770 5769 5768 5767 5766 5766 5765 5764 5763 5761 5760 5759 5758 5757 5756 5755 5754 5753 5752 5751 5749 5748 5747 5746 5745 5745 5744 5741 5740
5798 5791 5786 5784 5782 5780 5779 5777 5775 5774 5772 5771 5770 5769 5768 5767 5766 5765 5765 5764 5763 5762 5761 5760 5759 5758 5757 5756 5755 5754 5753 5752 5751 5750 5749 5747 5745 5744 5743 5742 5741 5740 5738
5799 5792 5787 5783 5781 5779 5777 5776 5774 5772 5771 5770 5769 5768 5766 5765 5765 5764 5763 5762 5762 5761 5760 5759 5757 5757 5756 5755 5754 5753 5752 5751 5751 5750 5749 5748 5745 5742 5741 5740 5739 5738 5737
5800 5791 5784 5782 5780 5778 5776 5774 5773 5771 5770 5768 5767 5766 5765 5764 5763 5763 5762 5761 5760 5759 5758 5757 5756 5755 5755 5754 5753 5752 5752 5751 5750 5750 5748 5746 5743 5741 5740 5739 5738 5736 5735
5798 5790 5783 5780 5778 5776 5774 5772 5771 5770 5768 5767 5766 5765 5764 5763 5762 5761 5760 5759 5758 5757 5757 5756 5755 5754 5753 5753 5752 5752 5751 5751 5750 5750 5748 5745 5742 5740 5739 5738 5737 5735 5734
5799 5790 5782 5778 5776 5774 5772 5771 5770 5768 5767 5766 5764 5763 5762 5762 5761 5760 5759 5758 5756 5756 5755 5754 5753 5753 5752 5752 5752 5751 5751 5751 5751 5749 5747 5744 5741 5739 5738 5737 5736 5734 5732
5800 5790 5781 5777 5774 5772 5771 5769 5768 5767 5765 5764 5763 5762 5761 5760 5760 5759 5758 5756 5755 5754 5754 5753 5752 5751 5751 5751 5751 5751 5751 5751 5751 5750 5746 5742 5740 5738 5737 5735 5734 5733 5731
5801 5790 5782 5777 5774 5771 5769 5767 5766 5765 5764 5763 5762 5761 5760 5759 5758 5757 5756 5755 5754 5753 5752 5752 5751 5750 5750 5750 5750 5751 5751 5751 5751 5749 5745 5741 5738 5737 5735 5734 5733 5732 5730
5799 5792 5785 5780 5775 5771 5768 5766 5765 5763 5762 5761 5760 5760 5759 5758 5757 5756 5755 5754 5753 5752 5751 5751 5750 5749 5749 5749 5750 5750 5750 5751 5751 5749 5745 5740 5738 5736 5734 5733 5732 5730 5729
5795 5792 5788 5783 5777 5774 5770 5766 5764 5762 5761 5760 5759 5758 5758 5758 5757 5756 5755 5753 5752 5752 5751 5750 5749 5749 5749 5749 5749 5750 5750 5751 5751 5748 5744 5740 5738 5736 5734 5732 5731 5729 5728
5790 5790 5788 5784 5780 5776 5772 5766 5764 5763 5760 5760 5760 5759 5758 5758 5758 5757 5754 5753 5752 5751 5750 5750 5749 5749 5749 5750 5750 5750 5751 5752 5751 5747 5742 5740 5737 5735 5733 5731 5730 5728 5727
5792 5790 5788 5784 5780 5776 5771 5767 5765 5763 5761 5761 5760 5760 5759 5759 5758 5756 5755 5753 5752 5751 5751 5750 5749 5750 5751 5751 5751 5751 5752 5752 5750 5746 5740 5738 5737 5735 5733 5731 5729 5728 5727
5793 5789 5787 5784 5780 5776 5772 5767 5765 5764 5762 5762 5761 5760 5759 5759 5759 5758 5756 5755 5754 5754 5753 5751 5751 5752 5752 5752 5752 5752 5752 5751 5749 5745 5740 5738 5737 5735 5733 5731 5729 5728 5726
5792 5789 5786 5783 5778 5774 5770 5767 5766 5765 5764 5763 5761 5760 5760 5760 5760 5758 5757 5756 5756 5755 5754 5753 5753 5752 5753 5753 5753 5752 5751 5751 5749 5746 5741 5738 5737 5735 5733 5731 5729 5728 5726
5793 5788 5786 5781 5776 5772 5768 5765 5765 5765 5764 5764 5763 5761 5761 5761 5760 5759 5757 5756 5756 5756 5756 5755 5753 5752 5752 5753 5753 5752 5752 5750 5749 5746 5742 5739 5737 5735 5734 5732 5730 5728 5726
5794 5789 5784 5780 5776 5770 5767 5764 5764 5765 5765 5764 5763 5762 5761 5761 5760 5760 5758 5757 5757 5757 5756 5755 5754 5752 5752 5753 5752 5752 5752 5750 5749 5747 5744 5741 5738 5736 5734 5732 5730 5728 5727
5796 5790 5785 5783 5776 5770 5766 5764 5764 5764 5765 5764 5763 5762 5760 5760 5760 5759 5759 5758 5758 5758 5757 5756 5755 5753 5752 5752 5752 5752 5752 5750 5749 5747 5745 5743 5741 5738 5736 5734 5732 5729 5727
5797 5791 5785 5783 5777 5771 5767 5764 5763 5763 5763 5763 5762 5761 5759 5759 5759 5759 5759 5759 5758 5758 5757 5757 5756 5754 5751 5751 5752 5752 5752 5751 5750 5749 5748 5746 5744 5741 5738 5735 5733 5731 5729
5799 5793 5787 5782 5778 5773 5768 5764 5762 5761 5761 5761 5761 5760 5759 5759 5759 5759 5759 5759 5759 5759 5757 5756 5755 5754 5752 5751 5751 5751 5751 5752 5751 5750 5749 5747 5745 5743 5740 5738 5734 5732 5730
5799 5793 5787 5782 5778 5773 5767 5762 5758 5758 5759 5760 5760 5760 5759 5759 5759 5758 5759 5759 5758 5757 5757 5756 5754 5752 5751 5752 5747 5744 5747 5751 5751 5750 5749 5747 5745 5745 5743 5739 5736 5734 5731
5799 5794 5788 5783 5779 5774 5770 5766 5762 5760 5759 5760 5761 5759 5759 5758 5758 5759 5758 5758 5758 5756 5755 5755 5753 5751 5750 5752 5746 5739 5735 5738 5744 5749 5749 5747 5746 5745 5743 5741 5739 5736 5733
5801 5796 5792 5786 5781 5776 5772 5767 5763 5759 5758 5758 5758 5758 5759 5759 5758 5758 5759 5758 5758 5757 5755 5754 5753 5750 5747 5749 5750 5742 5734 5729 5735 5743 5746 5747 5746 5745 5744 5743 5740 5737 5735
5805 5801 5794 5788 5782 5777 5772 5767 5761 5756 5754 5757 5758 5758 5759 5759 5759 5758 5758 5758 5757 5757 5756 5754 5754 5752 5749 5746 5748 5749 5747 5744 5734 5731 5739 5744 5745 5744 5744 5743 5741 5738 5735
5810 5804 5796 5789 5783 5778 5774 5769 5763 5760 5759 5759 5759 5758 5758 5759 5758 5758 5758 5757 5757 5757 5756 5755 5755 5753 5750 5748 5746 5746 5745 5745 5743 5734 5729 5735 5739 5742 5742 5741 5740 5737 5734
5812 5806 5798 5790 5783 5779 5774 5770 5765 5761 5759 5758 5757 5756 5756 5757 5758 5758 5758 5758 5757 5757 5756 5756 5755 5753 5751 5749 5748 5747 5745 5742 5740 5738 5733 5732 5732 5736 5739 5739 5737 5734 5731